TimeCDT,TemperatureF,Dew PointF,Humidity,Sea Level PressureIn,VisibilityMPH,Wind Direction,Wind SpeedMPH,Gust SpeedMPH,PrecipitationIn,Events,Conditions,WindDirDegrees,DateUTC
12:53 AM,64.0,59.0,84,30.03,10.0,Calm,Calm,-,N/A,,Clear,0,2012-09-19 05:53:00
1:53 AM,63.0,57.0,81,30.04,10.0,North,5.8,-,N/A,,Clear,360,2012-09-19 06:53:00
2:53 AM,62.1,54.0,75,30.04,10.0,North,5.8,-,N/A,,Clear,10,2012-09-19 07:53:00
3:53 AM,61.0,53.1,75,30.03,10.0,NNE,6.9,-,N/A,,Clear,20,2012-09-19 08:53:00
4:53 AM,60.1,53.1,78,30.04,10.0,North,4.6,-,N/A,,Clear,360,2012-09-19 09:53:00
6:53 AM,57.9,52.0,81,30.07,10.0,North,5.8,-,N/A,,Clear,10,2012-09-19 11:53:00
8:53 AM,63.0,51.1,65,30.10,10.0,NE,5.8,-,N/A,,Clear,40,2012-09-19 13:53:00
9:53 AM,66.0,50.0,56,30.11,10.0,NE,6.9,-,N/A,,Clear,50,2012-09-19 14:53:00
10:53 AM,69.1,50.0,51,30.12,10.0,NE,8.1,-,N/A,,Clear,50,2012-09-19 15:53:00
11:53 AM,72.0,48.9,44,30.11,10.0,North,4.6,-,N/A,,Clear,360,2012-09-19 16:53:00
12:53 PM,73.0,50.0,44,30.09,10.0,Variable,4.6,-,N/A,,Clear,0,2012-09-19 17:53:00
1:53 PM,75.0,50.0,41,30.08,10.0,ENE,6.9,-,N/A,,Clear,70,2012-09-19 18:53:00
2:53 PM,75.0,51.1,43,30.06,10.0,NNW,5.8,-,N/A,,Clear,330,2012-09-19 19:53:00
3:53 PM,75.9,50.0,40,30.05,10.0,NE,6.9,-,N/A,,Clear,50,2012-09-19 20:53:00
4:53 PM,75.0,50.0,41,30.04,10.0,ENE,5.8,-,N/A,,Clear,60,2012-09-19 21:53:00
5:53 PM,75.0,48.9,40,30.05,10.0,North,4.6,-,N/A,,Clear,10,2012-09-19 22:53:00
6:53 PM,71.1,52.0,51,30.05,10.0,Calm,Calm,-,N/A,,Clear,0,2012-09-19 23:53:00
7:53 PM,63.0,57.0,81,30.06,10.0,Calm,Calm,-,N/A,,Clear,0,2012-09-20 00:53:00
8:53 PM,64.9,55.0,70,30.08,10.0,Calm,Calm,-,N/A,,Clear,0,2012-09-20 01:53:00
9:53 PM,64.0,54.0,70,30.09,10.0,North,4.6,-,N/A,,Clear,10,2012-09-20 02:53:00
10:53 PM,63.0,53.1,70,30.09,10.0,NNE,3.5,-,N/A,,Clear,20,2012-09-20 03:53:00
11:53 PM,57.0,54.0,89,30.08,10.0,Calm,Calm,-,N/A,,Clear,0,2012-09-20 04:53:00